Weather in Taush

Russia / Perm Krai     56°25′37″N   56°04′47″E
temp.,
°C
wind,
m/s
gust,
m/s
humid.,
%
clouds,
%
prec.,
mm/h
press.,
hPa
HPBL,
m
3 august, tue
tue323:00+20sw33656 0.0 101332
02:00+19sw2362100 0.0 101331
05:00+17ssw1164100 0.0 101311
08:00+21ssw255928 0.0 1013132
11:00+27sw34435 0.0 1013509
14:00+31w233461 0.0 10121445
17:00+31wsw23325 0.0 10122440
20:00+27ese22455 0.0 101012
4 august, wed
wed423:00+22se33580 0.0 101132
02:00+19se22632 0.0 101112
05:00+19ese225965 0.0 101120
08:00+23sse24596 0.1 1011130
11:00+25ssw2360100 0.5 1011213
14:00+32sw343744 0.0 10101001
17:00+33nw12335 0.0 10091491
20:00+25s101655100 0.0 1010519
5 august, thu
thu523:00+21w375698 0.0 1008132
02:00+18ese3663100 0.0 100987
05:00+17wsw37758 0.0 1009138
08:00+18wsw5785100 0.0 1010511
11:00+23wnw566016 0.0 1010886
14:00+24wnw675236 0.0 10111316
17:00+24nw6749100 0.0 10111780
20:00+19nnw686995 0.0 1013797
6 august, fri
fri623:00+16nw5107785 0.0 1013475
02:00+12nw411925 0.0 1014339
05:00+11nw4109399 0.0 1015242
08:00+15nw5107239 0.0 1015448
11:00+19nw78470 0.0 10151152
14:00+22nw66390 0.0 10151656
17:00+22nw56370 0.0 10151851
20:00+18nnw4751100 0.0 1016242
7 august, sat
sat723:00+13nnw3369100 0.0 101631
02:00+11nw227891 0.0 101723
05:00+10nnw228334 0.0 101817
08:00+14nnw3466100 0.0 1019235
11:00+19nnw56455 0.0 10191145
14:00+21nnw674010 0.0 10191433
17:00+21nnw56426 0.0 10191395
20:00+17nw3655100 0.0 1019184